Location: F?ge?el
(45.8833°N, 22.5833°E)
Time: 11:44:57
(UTC+00:00)

Cosmos 1536 Rocket - Pass Details

Date: 17 November 2025
Orbit: 599 x 625 km, 82.5° (Epoch: 11 December)

Event Time Altitude Azimuth Distance (km) Brightness Sun altitude
Rises 16:51:34 0° 350° (N) 2,917 7.1 -19.9°
Reaches altitude 10° 16:53:48 10° 350° (N) 2,003 6.2 -20.3°
Maximum altitude 16:58:15 84° 265° (W) 629 3.5 -21.1°
Drops below altitude 10° 17:02:38 10° 175° (S) 1,972 6.1 -21.8°
Sets 17:04:50 0° 175° (S) 2,868 7.0 -22.2°
